Weather History for KSHV - September, 2013

Change the Weather History Date:

Sunday, September 1, 2013

  Actual Average Record
Temperature  
Mean Temperature 90 °F 81 °F  
Max Temperature 103 °F 92 °F 107 °F (2000)
Min Temperature 76 °F 70 °F 57 °F (1915)
Degree Days  
Heating Degree Days 0 0  
Month to date heating degree days 0 0  
Since 1 July heating degree days 0 0  
Cooling Degree Days 25 16  
Month to date cooling degree days 25 16  
Year to date cooling degree days 2070 1978  
Growing Degree Days 38 (Base 50)    
Moisture  
Dew Point 68 °F    
Average Humidity 55    
Maximum Humidity 82    
Minimum Humidity 27    
Precipitation  
Precipitation 0.00 in 0.09 in 2.67 in (1981)
Month to date precipitation 0.00 0.09  
Year to date precipitation 26.96 34.08  
Snow  
Snow 0.00 in - - ()
Month to date snowfall 0.0  
Since 1 July snowfall 0.0  
Since 1 September snowfall 0.0  
Snow Depth 0.00 in    
Sea Level Pressure  
Sea Level Pressure 29.84 in    
Wind  
Wind Speed 9 mph (South)    
Max Wind Speed 20 mph    
Max Gust Speed 26 mph    
Visibility 10 miles    
Events      
T = Trace of Precipitation, MM = Missing Value Source: NWS Daily Summary

Daily Weather History Graph

Daily Weather History Graph

Search for Another Location

Airport or City:

Trip Planner

Search our weather history database for the weather conditions in past years. The results will help you decide how hot, cold, wet, or windy it might be!

Date:

Astronomy

Sep. 01, 2013 Rise Set
Actual Time 6:50 AM CDT 7:39 PM CDT
Civil Twilight 6:25 AM CDT 8:04 PM CDT
Nautical Twilight 5:55 AM CDT 8:33 PM CDT
Astronomical Twilight 5:25 AM CDT 9:04 PM CDT
Moon 3:20 AM CDT (9/1) 5:10 PM CDT (9/1)
Length of Visible Light 13h 38m
Length of Day
12h 48m
Waning Crescent, 13% of the Moon is Illuminated
Sep 1
Waning Crescent
Sep 5
New
Sep 12
First Quarter
Sep 19
Full
Sep 26
Last Quarter

Hourly Weather History & Observations

Time (CDT) Temp. Heat Index Dew Point Humidity Pressure Visibility Wind Dir Wind Speed Gust Speed Precip Events Conditions
12:56 AM 80.1 °F 82.7 °F 68.0 °F 67% 29.83 in 10.0 mi SSE 12.7 mph - N/A   Clear
1:56 AM 78.1 °F - 68.0 °F 71% 29.83 in 9.0 mi SSE 12.7 mph - N/A   Clear
2:56 AM 80.1 °F 82.7 °F 68.0 °F 67% 29.84 in 10.0 mi South 11.5 mph - N/A   Clear
3:56 AM 79.0 °F - 69.1 °F 72% 29.85 in 10.0 mi SSW 6.9 mph - N/A   Clear
4:56 AM 78.1 °F - 69.1 °F 74% 29.86 in 10.0 mi SSW 8.1 mph - N/A   Clear
5:56 AM 77.0 °F - 70.0 °F 79% 29.86 in 10.0 mi SSW 6.9 mph - N/A   Clear
6:56 AM 75.9 °F - 70.0 °F 82% 29.88 in 10.0 mi SSW 4.6 mph - N/A   Clear
7:56 AM 78.1 °F - 71.1 °F 79% 29.88 in 10.0 mi SSW 8.1 mph - N/A   Clear
8:56 AM 82.0 °F 86.7 °F 72.0 °F 71% 29.89 in 10.0 mi SW 8.1 mph - N/A   Clear
9:56 AM 87.1 °F 93.6 °F 72.0 °F 61% 29.91 in 10.0 mi SSW 9.2 mph - N/A   Clear
10:56 AM 91.0 °F 97.6 °F 71.1 °F 52% 29.90 in 10.0 mi SSW 11.5 mph - N/A   Clear
11:56 AM 95.0 °F 100.7 °F 69.1 °F 43% 29.89 in 10.0 mi South 11.5 mph - N/A   Clear
12:56 PM 98.1 °F 104.4 °F 69.1 °F 39% 29.87 in 10.0 mi SSE 11.5 mph 18.4 mph N/A   Scattered Clouds
1:56 PM 99.0 °F 104.2 °F 68.0 °F 36% 29.84 in 10.0 mi ESE 5.8 mph - N/A   Scattered Clouds
2:56 PM 99.0 °F 102.9 °F 66.0 °F 34% 29.82 in 10.0 mi East 12.7 mph - N/A   Scattered Clouds
3:56 PM 100.9 °F 104.6 °F 64.9 °F 31% 29.79 in 10.0 mi East 10.4 mph - N/A   Scattered Clouds
4:56 PM 102.0 °F 104.6 °F 63.0 °F 28% 29.77 in 10.0 mi SSE 15.0 mph 20.7 mph N/A   Scattered Clouds
5:56 PM 100.0 °F 103.0 °F 64.0 °F 31% 29.77 in 10.0 mi SSE 13.8 mph 20.7 mph N/A   Scattered Clouds
6:56 PM 96.1 °F 98.8 °F 64.9 °F 36% 29.79 in 10.0 mi East 10.4 mph - N/A   Mostly Cloudy
7:56 PM 89.1 °F 93.7 °F 69.1 °F 52% 29.81 in 10.0 mi Variable 6.9 mph - N/A   Mostly Cloudy
8:56 PM 87.1 °F 90.6 °F 68.0 °F 53% 29.82 in 10.0 mi Variable 4.6 mph - N/A   Mostly Cloudy
9:56 PM 84.0 °F 87.8 °F 69.1 °F 61% 29.83 in 10.0 mi SSE 6.9 mph - N/A   Mostly Cloudy
10:56 PM 82.0 °F 85.5 °F 69.1 °F 65% 29.84 in 10.0 mi South 10.4 mph - N/A   Mostly Cloudy
11:56 PM 84.9 °F 88.2 °F 68.0 °F 57% 29.85 in 10.0 mi South 11.5 mph - N/A   Mostly Cloudy